Location: Unspecified
(0.0000°N, 0.0000°E)
Time: 13:29:17
(UTC+02:00)

ISS - Visible Passes

Search period start: 02 September 2014 00:00
Search period end: 12 September 2014 00:00
Orbit: 414 x 419 km, 51.6° (Epoch: 02 September)

Date Brightness Start Highest point End Pass type
(mag) Time Alt. Az. Time Alt. Az. Time Alt. Az.
02 Sep -0.4 21:02:20 10° W 21:04:16 15° SW 21:06:12 10° SSW visible
03 Sep -0.2 07:02:16 10° SSE 07:03:32 12° SE 07:04:47 10° ESE visible
05 Sep -2.7 07:00:01 12° SSW 07:03:01 56° SE 07:06:17 10° NE visible
06 Sep -1.0 06:14:32 23° SE 06:14:32 23° SE 06:17:09 10° ENE visible
07 Sep -2.1 07:01:57 24° WNW 07:02:24 24° NW 07:05:10 10° N visible
08 Sep -0.7 06:16:19 16° NNE 06:16:19 16° NNE 06:17:05 10° NNE visible
